Fort Rucker / Ozark, AL

9:59 PM CDT on August 22, 2017 (GMT -0500)
Fort Rucker / Ozark

Weather History for KHEY - March, 2013

Change the Weather History Date:

Friday, March 29, 2013

  Actual Average (KOZR) Record (KOZR)
Temperature  
Mean Temperature 57 °F -  
Max Temperature 75 °F 71 °F 87 °F (2007)
Min Temperature 39 °F 47 °F 38 °F (2013)
Degree Days  
Heating Degree Days 8    
Growing Degree Days 7 (Base 50)    
Moisture  
Dew Point 35 °F    
Average Humidity 49    
Maximum Humidity 86    
Minimum Humidity 22    
Precipitation  
Precipitation 0.00 in - - ()
Sea Level Pressure  
Sea Level Pressure 30.19 in    
Wind  
Wind Speed 3 mph (SSW)    
Max Wind Speed 9 mph    
Max Gust Speed 20 mph    
Visibility 10 miles    
Events      
Averages and records for this station are not official NWS values.
T = Trace of Precipitation, MM = Missing Value Source: NWS Daily Summary

Daily Weather History Graph

Daily Weather History Graph

Search for Another Location

Airport or City:

Trip Planner

Search our weather history database for the weather conditions in past years. The results will help you decide how hot, cold, wet, or windy it might be!

Date:

Astronomy

Mar. 29, 2013 Rise Set
Actual Time 6:34 AM CDT 7:00 PM CDT
Civil Twilight 6:10 AM CDT 7:24 PM CDT
Nautical Twilight 5:41 AM CDT 7:53 PM CDT
Astronomical Twilight 5:12 AM CDT 8:22 PM CDT
Moon 9:46 PM CDT (3/29) 7:54 AM CDT (3/29)
Length of Visible Light 13h 14m
Length of Day
12h 25m
Waning Gibbous, 93% of the Moon is Illuminated
Mar 29
Waning Gibbous
Apr 2
Last Quarter
Apr 10
New
Apr 18
First Quarter
Apr 25
Full

Hourly Weather History & Observations

Time (CDT) Temp. Dew Point Humidity Pressure Visibility Wind Dir Wind Speed Gust Speed Precip Events Conditions
12:53 AM 46.0 °F 37.0 °F 71% 30.27 in 10.0 mi Calm Calm - N/A   Clear
1:53 AM 43.0 °F 37.0 °F 80% 30.26 in 10.0 mi Calm Calm - N/A   Clear
2:53 AM 39.0 °F 35.1 °F 86% 30.26 in 10.0 mi Calm Calm - N/A   Clear
3:53 AM 42.1 °F 36.0 °F 79% 30.25 in 10.0 mi Calm Calm - N/A   Clear
4:53 AM 39.9 °F 35.1 °F 83% 30.25 in 10.0 mi Calm Calm - N/A   Clear
5:53 AM 39.9 °F 35.1 °F 83% 30.26 in 10.0 mi Calm Calm - N/A   Clear
6:53 AM 39.0 °F 35.1 °F 86% 30.28 in 10.0 mi Calm Calm - N/A   Clear
7:53 AM 44.1 °F 39.9 °F 85% 30.30 in 9.0 mi Calm Calm - N/A   Clear
8:53 AM 54.0 °F 37.0 °F 53% 30.30 in 10.0 mi East 3.5 mph - N/A   Clear
9:53 AM 64.0 °F 34.0 °F 33% 30.30 in 10.0 mi ESE 8.1 mph - N/A   Clear
10:53 AM 68.0 °F 35.1 °F 30% 30.29 in 10.0 mi South 5.8 mph - N/A   Clear
11:53 AM 72.0 °F 34.0 °F 25% 30.27 in 10.0 mi SE 5.8 mph - N/A   Clear
12:53 PM 71.1 °F 32.0 °F 24% 30.23 in 10.0 mi Variable 4.6 mph - N/A   Clear
1:53 PM 72.0 °F 32.0 °F 23% 30.20 in 10.0 mi Variable 5.8 mph - N/A   Clear
2:53 PM 73.9 °F 34.0 °F 23% 30.17 in 10.0 mi South 8.1 mph - N/A   Clear
3:53 PM 75.0 °F 34.0 °F 22% 30.15 in 10.0 mi WSW 9.2 mph - N/A   Clear
4:53 PM 73.9 °F 34.0 °F 23% 30.14 in 10.0 mi South 8.1 mph - N/A   Clear
5:53 PM 72.0 °F 34.0 °F 25% 30.15 in 10.0 mi SW 9.2 mph 19.6 mph N/A   Clear
6:53 PM 68.0 °F 32.0 °F 26% 30.17 in 10.0 mi SW 5.8 mph - N/A   Clear
7:53 PM 64.9 °F 32.0 °F 29% 30.17 in 10.0 mi SW 6.9 mph - N/A   Clear
8:53 PM 62.1 °F 35.1 °F 37% 30.19 in 10.0 mi SW 4.6 mph - N/A   Partly Cloudy
9:53 PM 61.0 °F 36.0 °F 39% 29.91 in 10.0 mi SW 5.8 mph - N/A   Overcast
10:53 PM 57.9 °F 39.9 °F 51% 29.91 in 10.0 mi SSW 4.6 mph - N/A   Mostly Cloudy
11:53 PM 55.9 °F 44.1 °F 64% 29.91 in 10.0 mi Calm Calm - N/A   Clear